Teterboro, NJ

9:53 PM EST on December 14, 2017 (GMT -0500)
Teterboro

Weather History for KTEB - June, 2014

Change the Weather History Date:

Saturday, June 14, 2014

  Actual Average Record
Temperature  
Mean Temperature 69 °F -  
Max Temperature 75 °F 77 °F 93 °F (2005)
Min Temperature 62 °F 58 °F 50 °F (1980)
Cooling Degree Days 4    
Growing Degree Days 19 (Base 50)    
Moisture  
Dew Point 57 °F    
Average Humidity 64    
Maximum Humidity 88    
Minimum Humidity 45    
Precipitation  
Precipitation 0.00 in - - ()
Sea Level Pressure  
Sea Level Pressure 29.88 in    
Wind  
Wind Speed 6 mph (NW)    
Max Wind Speed 18 mph    
Max Gust Speed 24 mph    
Visibility 9 miles    
Events      
Averages and records for this station are not official NWS values.
T = Trace of Precipitation, MM = Missing Value Source: NWS Daily Summary

Daily Weather History Graph

Daily Weather History Graph

Search for Another Location

Airport or City:

Trip Planner

Search our weather history database for the weather conditions in past years. The results will help you decide how hot, cold, wet, or windy it might be!

Date:

Astronomy

Jun. 14, 2014 Rise Set
Actual Time 5:23 AM EDT 8:29 PM EDT
Civil Twilight 4:50 AM EDT 9:02 PM EDT
Nautical Twilight 4:07 AM EDT 9:45 PM EDT
Astronomical Twilight 3:17 AM EDT 10:35 PM EDT
Moon 9:49 PM EDT (6/14) 7:05 AM EDT (6/14)
Length of Visible Light 16h 12m
Length of Day
15h 05m
Full, 97% of the Moon is Illuminated
Jun 14
Full
Jun 19
Last Quarter
Jun 27
New
Jul 5
First Quarter
Jul 12
Full

Hourly Weather History & Observations

Time (EDT) Temp. Dew Point Humidity Pressure Visibility Wind Dir Wind Speed Gust Speed Precip Events Conditions
12:15 AM 71.6 °F 66.2 °F 83% 29.80 in 7.0 mi SW 4.6 mph - N/A   Overcast
12:29 AM 69.8 °F 66.2 °F 88% 29.80 in 6.0 mi SSW 3.5 mph - N/A   Overcast
12:51 AM 70.0 °F 66.0 °F 87% 29.80 in 5.0 mi SSW 3.5 mph - N/A   Overcast
1:51 AM 71.1 °F 66.0 °F 84% 29.78 in 5.0 mi Calm Calm - N/A   Overcast
2:51 AM 70.0 °F 66.0 °F 87% 29.77 in 4.0 mi Calm Calm - N/A   Overcast
3:14 AM 69.8 °F 66.2 °F 88% 29.78 in 3.0 mi NW 5.8 mph - N/A   Haze
3:51 AM 70.0 °F 64.9 °F 84% 29.79 in 8.0 mi Calm Calm - N/A   Haze
4:51 AM 70.0 °F 63.0 °F 78% 29.80 in 10.0 mi NW 3.5 mph - N/A   Haze
5:51 AM 69.1 °F 61.0 °F 75% 29.82 in 10.0 mi NNW 5.8 mph - N/A   Haze
6:51 AM 69.1 °F 61.0 °F 75% 29.83 in 10.0 mi Calm Calm - N/A   Haze
7:51 AM 71.1 °F 61.0 °F 70% 29.85 in 10.0 mi NNW 6.9 mph - N/A   Clear
8:51 AM 73.0 °F 60.1 °F 64% 29.86 in 10.0 mi NW 11.5 mph 17.3 mph N/A   Clear
9:51 AM 75.0 °F 57.9 °F 55% 29.87 in 10.0 mi NNW 10.4 mph - N/A   Clear
10:51 AM 75.0 °F 57.9 °F 55% 29.88 in 10.0 mi NW 12.7 mph 19.6 mph N/A   Mostly Cloudy
11:51 AM 73.9 °F 57.0 °F 55% 29.88 in 10.0 mi WNW 15.0 mph - N/A   Mostly Cloudy
12:51 PM 75.0 °F 55.0 °F 50% 29.89 in 10.0 mi WNW 12.7 mph 19.6 mph N/A   Partly Cloudy
1:51 PM 73.4 °F 51.8 °F 47% 29.89 in 10.0 mi WNW 18.4 mph 21.9 mph N/A   Scattered Clouds
2:51 PM 73.9 °F 51.1 °F 45% 29.91 in 10.0 mi NW 12.7 mph 24.2 mph N/A   Mostly Cloudy
3:51 PM 72.0 °F 50.0 °F 46% 29.92 in 10.0 mi NW 10.4 mph 19.6 mph N/A   Overcast
4:51 PM 71.1 °F 48.9 °F 45% 29.93 in 10.0 mi NW 16.1 mph 23.0 mph N/A   Mostly Cloudy
5:51 PM 70.0 °F 48.0 °F 46% 29.95 in 10.0 mi NNW 16.1 mph 23.0 mph N/A   Mostly Cloudy
6:51 PM 68.0 °F 48.9 °F 50% 29.97 in 10.0 mi NW 16.1 mph 24.2 mph N/A   Overcast
7:51 PM 66.0 °F 46.9 °F 50% 29.98 in 10.0 mi NNW 10.4 mph 20.7 mph N/A   Clear
8:51 PM 64.0 °F 46.0 °F 52% 29.99 in 10.0 mi NW 8.1 mph 17.3 mph N/A   Clear
9:51 PM 63.0 °F 46.9 °F 56% 30.02 in 10.0 mi NW 4.6 mph - N/A   Clear
10:51 PM 63.0 °F 48.0 °F 58% 30.02 in 10.0 mi NW 6.9 mph - N/A   Clear
11:51 PM 62.1 °F 48.9 °F 62% 30.03 in 10.0 mi NNW 4.6 mph - N/A   Clear